RH
29 38 45 66 86 100 100 100 100 100 100 100 100 100 100 98 100 100 89 86 91 84 84 93 99 98 87 92 87 95 100 100 100 99 85 61 74 82 65 33 29 19 17 22 22 19 25 44 46 46 47 64 88 92
22 26 33 42 59 96 99 100 100 100 100 100 100 100 100 100 100 99 100 100 100 100 100 100 90 98 100 100 100 100 100 99 96 75 56 53 50 43 39 25 16 16 17 23 26 32 32 38 49 50 44 52 58 70
13 16 23 30 35 39 68 90 99 100 100 100 100 100 100 100 93 95 100 100 100 100 100 100 100 100 100 100 98 90 85 86 62 44 48 44 43 30 23 15 15 18 26 30 33 48 33 29 36 48 40 43 52 69
14 16 16 17 21 28 33 35 46 53 52 80 98 100 100 100 100 100 100 100 100 100 100 100 100 100 93 75 87 95 68 39 37 39 41 29 26 18 14 15 18 34 38 30 16 29 22 19 22 32 31 37 47 65
14 15 15 14 15 18 22 28 30 34 38 40 42 49 65 93 100 100 100 100 100 100 94 76 55 43 36 37 42 41 37 34 30 25 20 18 16 12 16 19 27 35 20 13 16 21 19 23 17 23 27 30 35 48
14 15 15 16 16 16 17 18 22 30 37 38 38 39 41 44 42 45 47 46 41 35 33 36 36 32 34 33 34 30 24 22 17 17 14 14 15 12 17 19 16 13 16 15 16 16 16 16 16 14 21 26 27 35
14 14 15 16 16 18 20 22 25 28 32 33 36 40 37 36 33 34 36 35 36 37 37 35 34 31 30 26 22 16 16 17 14 15 16 17 17 10 12 13 15 13 15 13 13 14 16 15 16 16 19 23 17 23
14 15 15 15 16 17 18 20 21 21 21 21 21 21 22 22 24 28 32 34 33 32 27 21 19 18 17 16 16 15 14 15 18 16 17 15 12 12 11 11 12 12 11 12 11 10 13 13 14 16 16 18 20 19
15 16 16 16 16 16 16 16 17 17 17 17 18 18 20 20 21 20 20 19 18 16 15 14 16 16 15 14 16 17 16 16 14 14 13 12 12 11 11 11 11 11 11 11 11 11 11 13 13 15 17 18 22 22
15 15 15 16 16 16 16 16 16 16 16 16 16 16 17 17 16 16 16 16 15 14 14 15 15 18 22 19 17 17 14 14 15 13 12 12 11 10 9 9 8 9 10 11 10 11 11 12 13 12 15 16 22 23
16 16 16 16 16 16 16 16 16 16 16 17 17 17 16 16 15 15 15 16 16 17 18 20 23 20 17 14 13 15 16 16 14 12 12 10 8 7 7 6 6 7 7 8 10 10 11 12 12 13 16 17 21 23
18 17 17 16 16 16 16 17 17 18 18 18 18 18 17 16 18 20 22 24 26 25 21 19 18 15 14 16 16 16 16 13 12 10 8 7 8 9 8 8 8 7 7 6 8 10 10 10 11 13 16 17 19 22
25 23 22 22 23 24 23 23 23 24 25 25 24 24 27 30 32 31 25 24 22 19 16 15 17 17 17 16 15 14 12 11 8 7 9 9 9 8 8 8 8 8 8 6 6 9 11 11 12 13 16 17 19 19
39 37 36 35 39 45 46 45 41 36 35 33 30 28 29 28 27 24 20 18 17 16 18 18 18 17 15 14 13 12 8 7 9 10 9 8 7 8 8 8 8 8 8 6 6 7 11 12 13 13 16 18 18 20
62 60 58 55 50 44 40 37 33 32 30 30 31 29 25 20 18 18 19 20 19 18 18 17 14 13 13 12 9 7 9 10 10 8 8 8 8 8 8 8 8 8 8 7 6 6 10 13 14 14 16 17 16 15
49 50 48 44 38 36 34 32 29 27 23 21 20 19 18 20 21 20 20 18 17 16 14 13 12 12 10 7 8 10 10 9 8 8 8 8 8 8 9 9 9 9 8 7 7 7 11 14 15 14 17 16 17 16
48 41 38 35 33 30 27 25 24 23 23 23 22 21 20 20 19 18 16 14 13 13 13 11 9 8 8 10 11 10 8 8 8 8 9 8 8 8 9 9 9 9 8 7 7 7 12 15 16 16 16 17 16 16
39 37 36 33 30 29 28 27 26 25 23 22 20 20 19 18 16 14 12 12 11 10 8 8 8 10 10 10 9 8 8 9 9 10 11 10 8 8 9 9 10 9 8 7 7 8 13 16 14 15 17 18 18 19
36 35 34 32 30 28 27 26 24 21 20 18 18 16 13 13 13 12 10 8 7 8 9 10 11 11 10 8 8 9 10 10 11 12 11 10 10 10 10 9 10 9 8 7 8 10 14 16 16 18 19 19 20 20
33 32 30 29 28 27 25 22 21 19 16 14 13 12 11 10 8 8 7 9 10 11 12 12 10 9 8 9 10 10 12 14 14 12 10 10 10 10 10 10 10 9 9 8 9 11 15 19 20 20 21 21 20 20
32 30 29 27 25 23 19 17 15 13 12 11 10 9 9 8 8 10 11 12 12 11 10 8 8 8 10 10 11 14 14 14 13 11 10 10 10 11 10 11 11 10 10 10 11 14 18 22 22 23 22 22 23 23
29 26 22 19 17 15 15 13 12 11 9 9 9 9 8 10 11 12 12 10 8 8 8 9 9 9 10 12 14 15 14 13 11 11 11 11 12 13 12 11 12 12 12 12 13 16 21 23 24 26 27 26 25 24
18 17 16 16 15 14 13 12 12 12 10 11 10 10 12 12 12 10 8 8 9 9 9 9 9 10 12 14 14 14 12 12 11 12 12 13 14 14 14 13 15 15 16 16 18 23 28 29 29 28 26 26 25 25
16 16 17 16 14 14 13 12 11 11 11 12 12 12 12 11 9 8 8 10 10 9 9 10 11 12 13 14 15 13 13 13 13 14 15 15 16 16 16 18 18 18 20 21 24 30 30 30 29 28 27 27 26 26
17 17 16 14 13 12 11 10 10 12 13 12 13 12 11 8 8 9 10 10 10 10 11 11 11 13 14 15 14 13 16 16 15 15 17 17 17 18 20 22 22 25 24 27 30 31 30 30 30 29 29 28 29 29
15 13 12 9 9 10 10 10 12 13 12 12 11 10 9 9 10 10 11 11 12 12 12 12 13 14 15 15 15 17 16 18 19 18 18 19 21 24 27 29 30 31 35 37 36 35 35 34 35 36 35 36 34 35
11 10 10 10 10 9 9 10 10 11 11 10 9 9 10 10 10 11 13 13 14 15 15 15 15 17 17 18 19 19 20 23 24 20 23 26 30 35 42 47 39 42 48 48 48 47 49 54 53 49 50 54 55 55
10 10 10 10 10 11 12 12 12 11 10 10 10 10 11 12 13 14 15 16 17 17 17 17 20 20 23 22 22 24 26 26 26 28 31 37 42 50 57 61 52 49 54 58 57 57 56 56 61 61 60 60 71 76
12 12 12 13 13 13 12 12 11 11 10 11 11 13 13 14 16 17 18 18 19 19 19 21 23 26 27 29 29 31 32 31 33 38 44 49 54 60 72 76 68 59 64 74 81 83 78 74 70 73 79 86 85 83
11 11 11 10 11 11 11 13 12 12 13 13 14 15 16 18 18 19 19 20 20 20 22 25 29 29 31 36 39 41 41 44 45 49 63 69 63 68 75 72 76 64 62 72 81 86 88 88 86 87 89 91 92 90
9 9 10 10 11 12 12 13 14 14 15 15 16 17 18 19 20 20 20 21 22 24 25 27 32 35 41 46 52 59 50 55 54 55 63 69 64 62 64 73 84 90 80 71 73 75 80 86 91 92 92 93 91 88
8 9 10 11 13 13 13 13 14 16 16 16 17 18 18 19 21 21 20 22 24 26 27 30 35 45 49 52 57 68 52 59 58 62 64 66 69 73 74 73 81 88 91 91 84 89 93 91 90 93 95 92 85 82
8 8 9 11 13 14 14 14 15 16 16 17 18 19 18 20 21 21 22 22 25 28 30 32 36 46 55 62 66 76 68 63 69 61 62 66 64 68 73 75 79 85 86 90 92 94 95 93 91 91 89 85 83 83
Wind_Speed
110 114 117 120 130 130 127 129 130 124 116 108 106 108 113 109 109 113 115 116 115 119 119 114 119 118 118 121 119 118 123 128 130 136 137 127 125 124 113 94 84 70 62 60 55 48 40 43 49 49 51 54 58 56
98 104 110 115 122 132 132 131 130 131 128 130 116 115 104 105 105 111 112 113 116 117 115 119 119 120 121 123 125 132 134 136 133 137 125 120 115 103 99 83 72 67 60 54 54 50 49 45 47 52 55 57 59 57
80 89 101 107 112 115 123 131 134 132 132 135 133 130 131 130 130 133 129 128 121 123 126 125 130 131 137 138 140 141 141 138 129 117 114 109 108 93 79 71 69 65 59 53 53 53 51 47 46 53 54 55 54 55
68 71 80 92 99 105 110 114 120 121 124 134 137 134 133 131 131 131 130 132 134 137 138 139 141 141 146 142 134 135 126 119 114 110 105 96 89 78 73 66 61 63 62 57 46 51 52 45 42 45 49 52 53 54
60 62 66 70 78 86 92 99 103 107 112 115 115 115 125 133 137 134 135 137 137 138 140 138 133 126 123 121 120 116 113 109 103 98 89 81 77 70 63 58 57 66 60 47 41 50 46 49 45 44 46 48 48 49
57 59 60 60 62 67 72 80 85 90 97 101 101 102 104 111 114 111 111 117 121 123 123 116 115 114 112 110 107 104 102 98 89 80 78 75 72 63 56 56 62 54 51 47 46 52 49 48 48 45 48 50 49 48
54 55 55 55 55 57 61 66 71 77 81 87 90 93 98 100 103 104 105 106 106 107 108 107 106 105 103 100 97 92 83 78 77 75 72 67 66 57 52 53 55 51 51 51 48 50 50 49 46 45 42 52 49 45
51 51 52 52 53 54 54 57 60 64 69 74 79 84 87 89 91 91 91 91 93 95 96 96 93 90 88 83 79 74 74 71 69 66 63 61 59 54 53 49 50 49 47 48 46 43 46 46 43 44 42 45 48 46
49 49 51 52 53 54 57 59 60 61 62 62 63 64 66 69 72 74 77 79 79 81 81 79 77 74 73 73 70 68 65 64 60 56 55 53 52 50 48 45 42 41 43 43 39 38 37 41 40 40 39 40 45 46
47 49 50 51 53 54 55 57 58 59 60 61 61 62 63 65 67 69 71 73 72 71 70 71 68 67 67 66 63 62 57 54 56 54 50 49 46 43 39 36 35 36 37 37 34 32 32 37 36 32 36 36 41 44
45 46 48 50 51 52 54 56 57 58 60 61 63 65 65 67 67 68 69 68 68 67 65 62 61 61 59 57 53 51 52 54 52 49 44 41 41 37 34 31 32 34 35 33 30 31 31 32 33 30 33 36 39 42
43 44 46 47 49 50 52 53 55 56 58 60 61 62 64 65 65 64 63 62 61 61 59 56 54 53 51 51 50 49 50 49 45 41 40 36 33 32 29 28 29 31 29 28 28 28 30 30 30 31 34 37 40 42
40 41 42 43 45 47 48 50 52 54 55 57 58 59 59 58 60 59 59 58 56 54 52 51 51 50 49 48 47 48 45 42 38 35 32 30 30 28 27 26 27 28 25 25 27 27 29 30 30 31 32 33 36 37
38 39 40 42 42 43 45 48 51 52 53 55 55 55 56 55 54 53 52 52 52 52 49 49 49 47 46 45 44 42 39 34 31 30 29 28 27 25 23 23 25 25 21 22 24 27 28 30 30 32 33 34 35 36
35 37 38 40 43 45 47 49 50 51 52 51 50 50 51 50 49 49 50 50 49 48 47 46 46 44 41 41 39 34 29 28 27 27 26 24 22 20 19 20 21 20 17 20 22 27 30 33 33 34 36 36 37 36
36 38 40 42 43 43 45 46 47 48 48 48 48 49 48 48 48 47 48 48 46 46 45 45 40 39 37 35 30 28 26 26 24 23 21 19 19 19 18 19 20 19 16 19 22 26 31 35 34 34 38 39 36 34
37 38 40 41 42 44 45 46 47 47 47 47 47 46 46 46 46 46 45 45 45 42 42 39 35 33 30 27 27 26 24 21 20 19 17 17 17 17 18 19 20 18 18 21 23 30 34 35 37 37 37 34 35 32
39 40 42 44 44 45 46 46 47 46 46 47 45 44 44 42 43 45 43 42 39 37 35 29 28 27 25 25 24 22 19 18 18 16 16 16 16 16 17 18 19 19 21 23 26 32 36 39 38 36 36 36 35 35
41 42 43 45 45 45 45 45 46 46 45 43 42 43 42 40 41 41 38 35 31 28 26 25 24 24 24 22 19 18 16 15 15 15 15 15 15 16 17 18 21 23 24 26 30 37 39 40 40 38 37 37 36 34
43 43 43 44 44 44 44 44 44 44 43 41 41 42 39 36 34 32 29 25 25 23 23 23 25 23 19 17 16 14 14 14 15 16 17 19 18 18 18 20 22 23 25 30 36 41 42 43 41 40 38 36 35 34
43 43 42 43 43 44 43 42 44 43 41 38 37 34 31 30 27 24 23 23 24 24 23 22 20 18 16 15 13 13 15 16 17 18 19 20 20 19 19 21 22 23 27 33 40 44 44 42 41 40 38 36 34 33
41 41 42 42 43 43 43 42 40 37 35 32 29 28 26 23 22 22 23 23 21 19 17 16 16 16 15 15 13 14 16 19 20 20 21 20 19 19 20 21 22 24 30 35 40 42 40 40 40 41 40 38 36 35
41 42 41 41 41 38 36 35 32 30 28 25 25 23 21 22 22 22 19 16 14 14 15 15 15 16 16 14 14 17 20 21 21 21 21 20 21 22 22 23 25 30 35 38 40 40 40 41 41 40 38 36 34 33
39 37 36 35 33 32 31 29 27 25 22 22 22 20 21 20 18 15 14 13 15 14 13 14 17 17 14 15 20 22 22 22 21 21 21 23 23 24 25 26 28 32 37 42 44 44 43 41 39 38 37 36 35 34
32 30 31 30 28 26 26 24 22 21 21 20 19 20 18 16 13 13 13 14 13 12 14 17 17 16 17 20 22 22 23 23 21 22 23 24 25 27 28 30 33 38 43 46 46 45 43 41 39 38 37 37 37 37
28 28 27 25 22 22 21 19 18 19 19 18 18 16 14 13 12 12 12 12 14 15 17 18 17 18 21 23 24 25 24 23 23 24 26 26 29 30 31 33 38 44 46 46 46 44 43 41 39 39 39 37 37 37
24 23 22 20 18 16 16 16 16 17 17 17 15 13 12 12 11 11 12 14 16 17 18 18 19 22 24 26 25 25 23 23 24 26 28 30 32 33 37 40 43 47 47 46 46 45 45 45 43 42 41 40 38 36
19 17 16 14 14 13 14 14 15 16 15 14 12 11 11 11 11 13 15 16 18 19 19 21 22 25 26 26 25 24 24 24 27 30 32 34 35 38 43 45 45 46 47 46 45 44 44 44 44 43 41 39 38 36
15 14 14 13 14 14 14 13 14 13 13 12 11 11 12 12 13 15 16 18 20 21 23 23 26 26 28 27 25 25 25 26 30 33 34 35 36 39 43 46 48 49 49 48 47 45 43 43 41 40 39 38 36 34
15 15 14 13 13 13 12 13 13 13 13 12 12 13 14 15 15 17 19 20 22 24 24 27 26 28 28 27 26 26 25 27 32 34 36 37 38 39 43 44 46 48 49 50 50 48 47 45 43 42 41 40 38 36
14 13 13 12 12 13 12 13 14 13 13 12 13 15 16 16 17 19 21 22 25 25 27 28 28 29 29 28 26 26 23 28 34 36 39 41 39 37 38 40 43 44 46 45 45 45 45 44 44 43 42 41 40 39
12 12 11 10 11 12 13 14 14 13 13 14 15 17 18 18 19 21 22 25 28 28 29 28 30 30 30 29 27 29 26 30 36 37 39 40 39 38 36 37 38 41 44 46 45 44 43 43 42 41 42 43 42 41
10 10 10 10 10 12 12 13 14 14 14 15 16 18 19 19 21 22 24 27 29 29 30 29 31 32 31 29 27 29 30 27 35 38 39 40 40 40 39 39 41 42 42 44 45 46 45 45 45 44 45 45 44 42
Wind_Direction
244 244 244 245 241 244 246 247 248 251 254 260 261 264 269 269 271 273 275 276 278 280 282 282 284 285 287 288 291 290 291 294 295 297 299 300 301 303 304 303 300 295 293 292 289 285 275 267 265 258 250 241 236 238
248 247 245 246 245 245 247 247 249 252 252 255 252 256 260 264 269 271 273 273 278 278 279 280 280 283 285 285 286 289 291 293 294 297 298 299 301 302 301 298 295 293 290 286 284 283 278 269 260 255 248 241 237 231
249 248 248 247 247 248 250 249 250 251 254 255 256 258 262 264 266 267 267 270 271 274 274 276 278 280 281 284 287 288 289 291 294 296 298 298 299 299 296 295 293 291 287 285 281 278 275 268 260 254 248 246 240 235
251 250 249 248 249 249 250 253 252 254 256 257 256 258 261 263 264 266 268 269 271 273 275 276 279 282 284 286 288 287 290 292 294 296 296 297 296 294 293 293 290 284 281 276 277 272 270 270 259 253 251 248 244 236
250 250 251 250 250 250 251 252 253 256 257 257 259 261 262 263 263 266 268 270 272 274 276 277 279 282 283 286 287 289 291 293 294 294 295 294 292 292 290 289 283 274 272 279 275 270 266 262 254 243 242 245 245 238
249 250 251 253 254 252 251 251 253 254 255 257 259 260 262 265 265 267 269 270 273 275 277 279 281 282 284 286 288 290 291 292 292 292 292 292 290 289 288 280 272 276 274 270 263 259 260 255 255 245 235 232 233 231
248 249 251 252 253 253 253 253 255 257 259 261 262 263 263 265 267 270 271 272 274 276 277 279 282 284 285 286 288 290 291 291 291 291 290 291 288 285 280 276 277 275 274 268 259 257 254 251 246 246 235 238 235 227
247 248 249 251 252 252 252 253 254 256 258 261 262 264 266 268 269 270 272 273 275 276 279 280 283 284 286 287 288 288 288 289 289 289 289 285 284 284 281 280 279 276 269 263 260 252 247 248 243 240 235 230 236 230
244 246 248 249 250 251 252 253 255 258 261 264 267 268 269 270 271 272 273 275 277 278 280 282 284 286 288 288 287 288 289 289 289 287 283 285 284 284 282 278 274 268 264 260 254 248 239 239 239 233 229 224 224 228
244 246 247 248 250 252 255 258 260 262 265 266 268 270 271 271 272 274 274 276 278 280 282 285 287 288 286 285 288 289 290 289 287 287 288 287 284 280 278 274 268 262 258 255 249 242 237 232 233 223 222 218 216 222
247 249 251 253 255 257 258 260 263 265 267 268 269 270 271 272 274 276 278 280 282 283 285 286 285 285 284 286 286 287 288 286 287 288 287 284 283 283 276 269 261 257 254 249 242 234 229 226 225 215 212 215 213 216
249 251 254 256 258 261 263 264 266 267 268 268 269 271 273 275 277 279 280 282 283 284 284 285 285 284 286 286 288 288 285 286 287 287 286 285 281 276 271 263 256 253 250 245 233 227 221 222 217 205 203 207 207 209
252 255 258 261 262 263 264 265 266 267 268 270 271 274 276 278 279 280 281 282 283 283 284 284 284 285 287 287 287 284 284 286 288 286 284 279 275 273 270 265 259 253 245 235 227 218 214 210 204 199 199 202 202 206
257 259 260 263 264 265 266 266 266 268 271 272 274 276 278 279 279 280 281 282 282 282 283 284 285 285 286 285 283 285 287 286 283 281 278 277 275 272 269 264 259 256 248 228 219 210 204 200 197 193 194 195 197 199
262 263 264 265 266 267 269 270 272 273 274 275 276 276 276 278 280 281 280 280 281 283 284 284 283 283 283 283 284 284 283 280 277 277 275 273 270 267 261 255 249 244 232 218 208 200 194 190 190 188 188 191 189 191
264 265 265 266 267 269 271 273 273 274 274 275 275 277 278 279 280 279 280 281 282 282 282 280 281 283 282 280 280 278 276 274 274 271 268 268 265 260 251 244 236 230 218 209 197 190 189 182 182 189 189 188 184 183
268 269 270 271 271 271 272 273 274 274 276 277 277 278 279 280 280 280 279 279 280 280 279 281 282 277 275 276 274 273 271 268 264 262 260 257 252 249 240 233 226 220 205 197 190 182 182 178 177 181 185 181 180 184
272 272 273 273 273 273 274 275 276 277 278 278 279 280 279 280 280 279 279 279 279 279 280 279 273 273 274 272 271 266 260 256 254 251 252 245 234 226 225 216 208 207 198 189 183 176 175 172 175 180 179 179 181 182
271 272 272 273 273 274 275 277 278 279 280 280 281 280 280 280 279 278 279 279 279 277 276 273 274 269 264 263 259 254 250 249 243 237 228 218 211 206 204 199 196 197 195 182 175 172 176 176 177 176 174 174 176 178
272 273 274 276 277 278 279 279 280 280 280 282 281 280 281 280 276 277 277 275 273 271 268 264 260 258 254 247 243 240 239 237 231 220 207 204 198 195 190 189 191 187 185 176 171 171 175 176 174 173 173 173 174 176
276 277 278 278 278 278 279 280 279 281 283 281 280 281 279 275 276 274 272 270 269 267 263 259 254 247 237 231 224 227 228 223 209 197 195 194 194 189 185 179 176 171 172 169 168 170 173 172 170 170 172 174 176 175
276 277 278 279 280 281 282 281 282 282 280 280 278 275 274 273 271 270 271 270 268 263 256 245 238 230 221 210 210 218 213 200 191 186 185 188 186 174 171 168 160 162 165 167 168 169 169 168 168 169 171 174 177 179
280 281 281 281 279 279 280 279 279 278 278 276 272 270 268 266 269 272 268 261 251 240 234 230 221 206 197 196 201 200 189 183 179 180 182 180 172 165 159 150 149 154 158 163 164 162 164 168 171 172 172 174 177 180
281 280 279 278 278 278 278 278 277 275 271 265 264 264 264 268 268 259 246 233 226 222 219 210 198 188 184 190 190 186 178 175 177 176 174 171 162 155 150 148 150 153 157 162 162 165 168 170 170 172 173 175 178 181
280 279 278 278 278 277 275 272 269 263 260 258 258 261 264 259 246 235 225 219 212 208 202 192 182 179 183 186 177 174 172 174 172 168 168 163 157 153 151 151 153 156 160 162 165 169 171 172 173 174 176 179 180 183
281 279 278 277 275 270 267 264 259 257 256 255 254 253 245 233 226 219 211 206 201 196 191 183 178 179 181 175 171 170 173 168 165 166 163 159 155 153 153 155 160 162 163 165 167 169 171 173 175 177 179 182 184 186
279 276 273 271 266 262 258 254 252 251 250 248 241 232 227 221 212 202 197 195 193 188 186 182 180 178 175 173 173 173 168 166 166 166 162 159 155 155 157 161 166 165 165 168 169 171 172 173 176 179 180 181 182 183
273 269 264 257 255 253 250 247 244 242 237 235 229 222 217 208 197 192 190 189 187 185 181 178 178 175 172 174 172 168 167 165 164 165 164 161 159 160 163 168 172 171 170 172 175 177 179 179 180 182 184 185 186 188
264 260 257 253 250 248 243 238 236 231 229 227 218 210 207 199 192 191 187 187 185 182 178 180 177 175 174 173 170 169 168 164 169 170 168 167 166 167 170 175 177 178 175 175 177 180 183 185 186 186 187 190 194 197
260 257 253 247 242 237 230 225 226 224 224 216 207 202 198 193 193 188 185 184 186 181 181 179 177 175 172 171 172 173 172 169 174 174 174 178 177 176 179 181 184 185 184 183 183 185 187 190 191 193 195 198 202 205
257 255 249 240 233 227 223 219 219 219 217 208 202 201 196 192 193 189 186 186 185 184 184 180 178 175 171 172 176 181 178 176 180 180 181 184 187 185 186 184 185 190 194 195 195 194 195 196 198 201 204 207 211 214
250 249 243 235 225 222 220 216 216 214 211 204 201 200 197 194 192 192 190 189 187 187 186 183 179 174 172 175 176 184 188 184 187 188 190 192 193 193 194 192 193 195 197 200 202 202 203 205 207 210 213 216 220 224
245 243 239 233 223 219 218 216 215 212 208 203 200 200 198 197 195 193 191 190 190 191 191 188 182 177 175 178 178 183 195 192 196 195 196 199 200 199 199 200 200 201 203 204 206 207 208 210 212 215 219 222 227 231